Current Version              Previous Version:    01  02  03  04  05  06  07  08  09  10  11  12  13  14  15  16  17  18  19  20  21  22  23  24  25  26  27  28  29  30  
   31  32  33  34  35  36  37  38  39  40  41  42  43  44  45  46  47  48  49  50  51  52  53  54  55  56  57  58  59  60  

[Printable]
652
ASUS44 KFWD 181501
RWRTX
NORTH TEXAS HOURLY WEATHER ROUNDUP
NATIONAL WEATHER SERVICE FORT WORTH TX
900 AM CST THU DEC 18 2014

NOTE: "FAIR" INDICATES FEW OR NO CLOUDS BELOW 12,000 FEET WITH NO
SIGNIFICANT WEATHER AND/OR OBSTRUCTIONS TO VISIBILITY.

TXZ118-119-181600-
DALLAS/FORT WORTH METROPLEX

CITY           SKY/WX    TMP DP  RH WIND       PRES   REMARKS
DFW AIRPORT    DRZL/FOG  43  43 100 E3        30.15R VSB 1
DALLAS LOVE    DRIZZLE   44  43  96 E3        30.16R FOG
FTW MEACHAM    FOG       45  43  93 E6        30.15R VSB 3/4
DAL-EXECUTIVE  FOG       45  42  89 E6        30.14R VSB 3/4
FTW-ALLIANCE   CLOUDY    44  43  96 CALM      30.15R FOG
FTW-SPINKS     FOG       45  45 100 CALM      30.16R VSB 1
ARLINGTON      FOG       45  45 100 NE5       30.15R VSB 1
GRAND PRAIRIE  FOG       45  45 100 NE5       30.16S VSB 1
ADDISON        FOG       45  43  93 E5        30.16R VSB 1
MESQUITE       FOG       43  43 100 CALM      30.17R VSB 1
LANCASTER      CLOUDY    43  42  94 NE3       30.17R FOG
$$

TXZ091>094-102>105-117-120-121-131>134-181600-
NORTH CENTRAL TEXAS

CITY           SKY/WX    TMP DP  RH WIND       PRES   REMARKS
SHRMAN/DENISON CLOUDY    41  41 100 CALM      30.17R FOG
BRIDGEPORT     CLOUDY    43  43 100 E5        30.17R FOG
DENTON         CLOUDY    44  43  96 SE3       30.16R FOG
MCKINNEY       CLOUDY    42  41  96 E3        30.17R FOG
ROCKWALL       CLOUDY    42  42  99 E3        30.15R FOG
TERRELL        CLOUDY    45  43  93 NE3       30.16R FOG
WAXAHACHIE     FOG       44  44 100 CALM      30.16R VSB 1
$$

TXZ083>090-098>101-113>116-127>130-139>142-154-155-181600-
WESTERN NORTH TEXAS

CITY           SKY/WX    TMP DP  RH WIND       PRES   REMARKS
WICHITA FALLS  CLOUDY    42  41  96 SE7       30.13R FOG     WCI  38
WF-KICKAPOO    CLOUDY    43  43 100 SE6       30.14R FOG     WCI  39
ABILENE        SUNNY     47  45  93 SW6       30.11R
ABILENE-DYESS  SUNNY     47  42  80 S2        30.10R
MINERAL WELLS  FOG       45  44  97 SE7       30.12R VSB 3/4
STEPHENVILLE   CLOUDY    47  46  95 CALM      30.14S VSB 1/4
COMANCHE       CLOUDY    51  51 100 SW7       30.12R
$$

TXZ143>147-156>162-174-175-181600-
CENTRAL TEXAS

CITY           SKY/WX    TMP DP  RH WIND       PRES   REMARKS
WACO           FOG       47  46  97 CALM      30.14S VSB 3/4
WACO-MCGREGOR  CLOUDY    48  43  81 CALM      30.15S
CORSICANA      FOG       47  45  93 E5        30.15S VSB 1/4
MEXIA          FOG       47  46  99 E3        30.13S VSB 1/2
HEARNE         CLOUDY    49  49  99 CALM      30.15S FOG
TEMPLE         CLOUDY    48  45  87 CALM      30.12S VSB 1/4
KILLEEN        CLOUDY    48  48 100 SW2       30.13R FOG
KILLEEN-SKYLRK CLOUDY    48  43  81 CALM      30.10R
FORT HOOD      CLOUDY    48  48  99 CALM      30.12R FOG
HAMILTON       FOG       49  49 100 CALM      30.13S VSB 3/4
LAMPASAS       CLOUDY    50  50  99 CALM      30.12R FOG
$$

TXZ095>097-106>112-122>126-135>138-148>153-164>167-181600-
EAST TEXAS

CITY           SKY/WX    TMP DP  RH WIND       PRES   REMARKS
PARIS          CLOUDY    41  37  87 E8        30.18F WCI  36
SULPHUR SPRNGS CLOUDY    42  42  98 E3        30.19S FOG
MINEOLA        CLOUDY    43  43 100 SE3       30.17R
TYLER          CLOUDY    45  43  93 E6        30.15R FOG
LONGVIEW       CLOUDY    46  42  86 E8        30.16R
PALESTINE      CLOUDY    47  47  97 CALM      30.16R FOG
JACKSONVILLE   CLOUDY    46  45  99 E7        30.16R FOG
NACOGDOCHES    CLOUDY    48  43  81 E7        30.16R
LUFKIN         CLOUDY    53  46  77 NE7       30.14S
$$

SUPPLEMENTAL OBSERVATIONS (CENTRAL)

CITY           SKY/WX    TMP DP  RH WIND       PRES   REMARKS
$$

SUPPLEMENTAL OBSERVATIONS (WEST)

CITY           SKY/WX    TMP DP  RH WIND       PRES   REMARKS
$$

SUPPLEMENTAL OBSERVATIONS (EAST)

CITY           SKY/WX    TMP DP  RH WIND       PRES   REMARKS
$$

SUPPLEMENTAL OBSERVATIONS ARE A COLLECTION OF AUTOMATED INSTRUMENTS
THAT ARE MAINTAINED BY A VARIETY OF FEDERAL AND STATE AGENCIES.
CERTAIN ELEMENTS...SUCH AS HUMIDITY VALUES AND SUSTAINED WIND
SPEEDS...MAY BE APPROXIMATED.